User: anonymous   Login
Location: Newark
(40.2370°N, 1.4081°W)
Time: 23:16:42
(UTC+00:00)
Language:

QB50P2 - Orbit

View from above orbital plane
View from above orbital plane
View from above satellite
View from above satellite

Ground track
Ground track

The orbit data is extracted from the following two-line orbital elements,

1 40032U 14033Y   19342.53029585  .00000209  00000-0  28460-4 0  9991
2 40032  97.8999 259.7927 0011166 201.4649 158.6101 14.88564284296957
Epoch (UTC): 08 December 2019 12:43:37
Eccentricity: 0.0011166
inclination: 97.8999°
perigee height: 594 km
apogee height: 610 km
right ascension of ascending node: 259.7927°
argument of perigee: 201.4649°
revolutions per day: 14.88564284
mean anomaly at epoch: 158.6101°
orbit number at epoch: 29695

The dashed part of the orbit path shows where the satellite is in the earth's shadow,  

DLR